Overview Statistics Trail Chart Weather Telemetry Raw packets
 

This is the latest recevied weather packets stored in our database for station/object DL4SAV. If no packets are shown the sender has not sent any weather packets the latest 10 day(s).

<< 112 113 114 115 116 >>
Time Temp. Humidity Pressure Rain* Wind** Luminosity Snow
1787755827 30.56° C 43% 1016.4 hPa 0 mm - - -
1787755527 30.56° C 42% 1016.4 hPa 0 mm - - -
1787755226 31.11° C 42% 1016.3 hPa 0 mm - - -
1787754926 31.11° C 42% 1016.4 hPa 0 mm - - -
1787754626 31.11° C 42% 1016.4 hPa 0 mm - - -
1787754326 31.11° C 41% 1016.4 hPa 0 mm - - -
1787754025 31.67° C 41% 1016.4 hPa 0 mm - - -
1787753725 31.11° C 42% 1016.4 hPa 0 mm - - -
1787753425 31.11° C 43% 1016.5 hPa 0 mm - - -
1787753124 30.56° C 45% 1016.5 hPa 0 mm - - -
1787752824 30° C 44% 1016.5 hPa 0 mm - - -
1787752524 29.44° C 45% 1016.6 hPa 0 mm - - -
1787752224 29.44° C 45% 1016.6 hPa 0 mm - - -
1787751923 28.89° C 45% 1016.6 hPa 0 mm - - -
1787751623 28.89° C 46% 1016.7 hPa 0 mm - - -
1787751323 28.33° C 46% 1016.8 hPa 0 mm - - -
1787751022 28.33° C 46% 1016.9 hPa 0 mm - - -
1787750722 28.33° C 47% 1016.6 hPa 0 mm - - -
1787750422 28.33° C 47% 1016.9 hPa 0 mm - - -
1787750122 27.78° C 49% 1016.8 hPa 0 mm - - -
1787749823 27.22° C 51% 1016.9 hPa 0 mm - - -
1787749521 27.22° C 51% 1016.9 hPa 0 mm - - -
1787749221 27.22° C 50% 1016.8 hPa 0 mm - - -
1787748922 27.22° C 50% 1016.9 hPa 0 mm - - -
1787748620 27.22° C 50% 1016.9 hPa 0 mm - - -

* Rain latest hour (hover to see other rain measurements)
** Current wind speed in m/s (hover to see current wind gust speed)